Airfield :
LOGIN :

Register | Disclaimer

   EN    FR    IT 

 










Legend :    VFR   Marginal VFR   IFR   Intensive IFR   Very Intensive IFR
Visi :
Ceiling :
>= 8 km
>= 3000ft
5 to 8 km
1000 to 3000 ft
1500m to 5 km
500 to 1000 ft
800 to 1500m
200 to 500 ft
< 800m
< 200 ft
Symbols :   Thunderstorms  Fog  Heavy snow  Heavy precipitations  Wind > 20 kt
SIGMETs :     Misc.  Thunderstorms  Icing  Turbulence  Mountain Waves  Volcanic Ashes







- Airport Elevation : 300 ft
- IATA code : MLA


LMML - Malta Luqa

CURRENT METAR :
  • 210645Z 18007KT 9999 FEW020 13/10 Q1013 NOSIG

EXPIRED METARs :
  • 210615Z 19007KT 9999 FEW020 13/09 Q1013 NOSIG
  • 210545Z 20006KT 9999 FEW015 13/09 Q1013 NOSIG
  • 210515Z 21007KT CAVOK 13/09 Q1013 NOSIG
  • 210445Z 22005KT CAVOK 12/09 Q1013 NOSIG
  • 210415Z 22005KT 9999 FEW018 12/09 Q1013 NOSIG

TAF TAF LMML
Valid from the 21 at 06:00 until the 22 at 06:00 UTC


210500Z 2106/2206 21012KT 9999 FEW020
TEMPO 2107/2124 7000 SHRA BKN020TCU
PROB30
TEMPO 2107/2206 VRB20G30KT 3000 TSRAGS BKN014CB
No reported NOTAMs for that airfield.



MET'MAP, your aeronautical weather chart ! - Copyright ORBIFLY December 2007 - Disclaimer

ORBIFLY MET'MAP TEAM :

Programming & Development : Alexandra Zaïnal
Concept & Development : Baudouin d'Aumeries
Co-Development & Prog : Marc-Olivier Méhu
Technical & hardware support : Manuel Goepfert

Contact : metmap@orbifly.com




SOURCES & CREDITS :

   NOAA